�������l�o���
Date,Time,MP-1(��Sv/h),MP-2(��Sv/h),MP-3(��Sv/h),MP-4(��Sv/h),MP-5(��Sv/h),MP-6(��Sv/h),MP-7(��Sv/h),MP-8(��Sv/h),����,����(m/s),���J
2021/06/20,00:00,0.618,0.919,0.586,1.132,0.803,0.368,0.646,0.603,��,6.8,��
2021/06/20,00:10,0.620,0.920,0.586,1.134,0.804,0.370,0.646,0.601,��,8.0,��
2021/06/20,00:20,0.620,0.920,0.586,1.134,0.803,0.369,0.647,0.602,��,7.2,�L
2021/06/20,00:30,0.621,0.920,0.588,1.133,0.801,0.369,0.646,0.603,��,8.3,�L
2021/06/20,00:40,0.621,0.919,0.588,1.132,0.801,0.370,0.648,0.604,��,7.7,�L
2021/06/20,00:50,0.619,0.917,0.586,1.132,0.806,0.370,0.647,0.603,��,7.9,�L
2021/06/20,01:00,0.621,0.917,0.587,1.131,0.802,0.370,0.646,0.603,��,8.6,�L
2021/06/20,01:10,0.618,0.914,0.586,1.133,0.801,0.370,0.644,0.602,��,6.5,�L
2021/06/20,01:20,0.619,0.914,0.584,1.132,0.800,0.368,0.644,0.600,��,5.9,�L
2021/06/20,01:30,0.618,0.915,0.586,1.131,0.798,0.369,0.643,0.597,��,5.5,�L
2021/06/20,01:40,0.618,0.911,0.586,1.130,0.796,0.369,0.642,0.599,��,4.2,�L
2021/06/20,01:50,0.617,0.912,0.585,1.130,0.797,0.370,0.644,0.599,��쐼,4.4,�L
2021/06/20,02:00,0.616,0.912,0.586,1.129,0.797,0.370,0.643,0.598,��,5.2,�L
2021/06/20,02:10,0.616,0.912,0.585,1.130,0.799,0.369,0.643,0.599,��,4.9,�L
2021/06/20,02:20,0.618,0.912,0.585,1.129,0.798,0.371,0.643,0.601,��쐼,4.0,�L
2021/06/20,02:30,0.616,0.910,0.585,1.127,0.794,0.370,0.642,0.600,��,5.0,�L
2021/06/20,02:40,0.615,0.909,0.584,1.127,0.795,0.369,0.644,0.598,��,5.4,�L
2021/06/20,02:50,0.616,0.907,0.583,1.129,0.793,0.369,0.642,0.599,��,4.7,�L
2021/06/20,03:00,0.617,0.907,0.584,1.126,0.792,0.370,0.641,0.597,��,5.4,�L
2021/06/20,03:10,0.613,0.907,0.582,1.124,0.792,0.370,0.641,0.599,��,5.5,�L
2021/06/20,03:20,0.615,0.907,0.582,1.125,0.793,0.369,0.642,0.598,��,5.2,��
2021/06/20,03:30,0.614,0.908,0.583,1.122,0.792,0.370,0.641,0.598,��쐼,5.0,�L
2021/06/20,03:40,0.614,0.907,0.583,1.123,0.793,0.367,0.642,0.597,��,5.3,�L
2021/06/20,03:50,0.614,0.909,0.583,1.125,0.792,0.368,0.641,0.599,��,5.5,��
2021/06/20,04:00,0.615,0.909,0.584,1.124,0.793,0.367,0.642,0.600,��,5.3,��
2021/06/20,04:10,0.616,0.909,0.583,1.124,0.791,0.367,0.642,0.601,��,5.6,��
2021/06/20,04:20,0.615,0.908,0.583,1.124,0.793,0.368,0.642,0.600,��쐼,5.8,�L
2021/06/20,04:30,0.617,0.910,0.583,1.122,0.794,0.369,0.641,0.600,��쐼,4.2,��
2021/06/20,04:40,0.614,0.909,0.582,1.124,0.792,0.369,0.643,0.599,��쐼,2.8,��
2021/06/20,04:50,0.616,0.911,0.582,1.124,0.793,0.369,0.641,0.599,��,5.1,��
2021/06/20,05:00,0.615,0.910,0.584,1.123,0.795,0.369,0.642,0.601,��쐼,5.3,��
2021/06/20,05:10,0.615,0.911,0.584,1.123,0.795,0.370,0.642,0.600,��쐼,4.6,��
2021/06/20,05:20,0.614,0.911,0.583,1.123,0.797,0.368,0.645,0.600,��,4.3,��
2021/06/20,05:30,0.616,0.912,0.583,1.124,0.795,0.370,0.642,0.600,��쐼,3.8,��
2021/06/20,05:40,0.614,0.913,0.584,1.122,0.796,0.368,0.644,0.600,��쐼,2.8,��
2021/06/20,05:50,0.615,0.913,0.584,1.123,0.796,0.369,0.642,0.600,��쐼,3.3,��
2021/06/20,06:00,0.616,0.911,0.584,1.123,0.795,0.369,0.642,0.600,��쐼,2.0,��
2021/06/20,06:10,0.617,0.912,0.583,1.123,0.796,0.369,0.642,0.601,��쐼,2.0,��
2021/06/20,06:20,0.616,0.911,0.584,1.122,0.796,0.369,0.642,0.601,��,2.0,��
2021/06/20,06:30,0.617,0.911,0.583,1.122,0.795,0.369,0.644,0.599,�쐼,1.5,��
2021/06/20,06:40,0.616,0.909,0.583,1.124,0.796,0.369,0.644,0.599,��,1.4,��
2021/06/20,06:50,0.614,0.911,0.584,1.124,0.798,0.368,0.642,0.599,-,CALM,��
2021/06/20,07:00,0.616,0.911,0.583,1.124,0.798,0.367,0.643,0.599,��쓌,1.1,��
2021/06/20,07:10,0.615,0.911,0.583,1.123,0.797,0.368,0.643,0.598,��쓌,0.9,��
2021/06/20,07:20,0.616,0.909,0.584,1.125,0.797,0.368,0.644,0.600,��쓌,1.4,��
2021/06/20,07:30,0.614,0.909,0.583,1.123,0.794,0.368,0.642,0.600,��쓌,2.0,��
2021/06/20,07:40,0.615,0.909,0.583,1.123,0.798,0.369,0.642,0.599,��쓌,1.5,��
2021/06/20,07:50,0.616,0.910,0.583,1.125,0.794,0.368,0.642,0.600,��쓌,1.4,��
2021/06/20,08:00,0.616,0.912,0.584,1.124,0.797,0.367,0.642,0.599,��쓌,0.9,��
2021/06/20,08:10,0.616,0.910,0.583,1.124,0.797,0.368,0.644,0.598,��쓌,0.9,��
2021/06/20,08:20,0.615,0.908,0.584,1.123,0.797,0.368,0.645,0.599,��,0.9,��
2021/06/20,08:30,0.615,0.911,0.583,1.125,0.796,0.368,0.643,0.598,��쓌,0.6,��
2021/06/20,08:40,0.616,0.912,0.583,1.125,0.797,0.369,0.644,0.599,-,CALM,�L
2021/06/20,08:50,0.618,0.912,0.584,1.126,0.796,0.367,0.644,0.597,�k,0.9,�L
2021/06/20,09:00,0.616,0.910,0.585,1.124,0.797,0.368,0.642,0.600,�k,1.4,��
2021/06/20,09:10,0.617,0.912,0.584,1.126,0.797,0.370,0.644,0.599,�k,1.1,��
2021/06/20,09:20,0.616,0.912,0.585,1.124,0.799,0.369,0.644,0.599,�k�k��,2.6,��
2021/06/20,09:30,0.616,0.911,0.583,1.124,0.798,0.368,0.644,0.599,�k�k��,3.3,��
2021/06/20,09:40,0.616,0.912,0.586,1.124,0.797,0.369,0.644,0.598,�k�k��,3.6,��
2021/06/20,09:50,0.618,0.913,0.584,1.125,0.797,0.369,0.644,0.599,�k�k��,3.4,��
2021/06/20,10:00,0.617,0.913,0.584,1.127,0.798,0.370,0.643,0.598,�k�k��,4.0,��
2021/06/20,10:10,0.617,0.913,0.584,1.127,0.797,0.369,0.645,0.599,�k,4.5,�L
2021/06/20,10:20,0.617,0.912,0.585,1.126,0.800,0.369,0.646,0.600,�k,4.9,�L
2021/06/20,10:30,0.620,0.911,0.585,1.125,0.798,0.370,0.646,0.599,�k,4.9,�L
2021/06/20,10:40,0.618,0.914,0.585,1.127,0.801,0.371,0.644,0.598,�k,5.1,��
2021/06/20,10:50,0.618,0.914,0.585,1.125,0.800,0.371,0.645,0.601,�k,5.7,�L
2021/06/20,11:00,0.619,0.915,0.588,1.128,0.800,0.370,0.644,0.599,�k,5.2,�L
2021/06/20,11:10,0.619,0.913,0.586,1.127,0.800,0.370,0.646,0.600,�k�k��,3.8,��
2021/06/20,11:20,0.619,0.917,0.587,1.128,0.801,0.370,0.646,0.600,�k,3.5,��
2021/06/20,11:30,0.621,0.917,0.584,1.128,0.799,0.370,0.646,0.600,�k,3.7,��
2021/06/20,11:40,0.620,0.915,0.586,1.129,0.801,0.371,0.646,0.600,�k,4.5,��
2021/06/20,11:50,0.619,0.915,0.587,1.130,0.800,0.370,0.646,0.601,�k�k��,6.7,��
2021/06/20,12:00,0.618,0.915,0.585,1.128,0.801,0.371,0.646,0.600,�k,6.2,��
2021/06/20,12:10,0.620,0.916,0.584,1.128,0.800,0.369,0.647,0.601,�k�k��,6.8,��
2021/06/20,12:20,0.618,0.916,0.585,1.129,0.799,0.370,0.646,0.599,�k�k��,7.2,��
2021/06/20,12:30,0.619,0.914,0.584,1.128,0.801,0.369,0.645,0.601,�k�k��,6.3,��
2021/06/20,12:40,0.619,0.916,0.583,1.130,0.799,0.369,0.645,0.601,�k�k��,6.5,��
2021/06/20,12:50,0.620,0.915,0.585,1.129,0.801,0.370,0.645,0.599,�k�k��,7.3,��
2021/06/20,13:00,0.621,0.915,0.585,1.128,0.802,0.370,0.646,0.600,�k�k��,6.8,��
2021/06/20,13:10,0.620,0.914,0.586,1.130,0.802,0.368,0.646,0.601,�k�k��,6.2,��
2021/06/20,13:20,0.622,0.917,0.584,1.128,0.801,0.369,0.648,0.601,�k�k��,5.6,�L
2021/06/20,13:30,0.620,0.915,0.585,1.128,0.801,0.369,0.647,0.600,�k�k��,5.6,�L
2021/06/20,13:40,0.620,0.917,0.585,1.128,0.802,0.368,0.648,0.600,�k�k��,5.2,��
2021/06/20,13:50,0.621,0.916,0.586,1.129,0.802,0.371,0.647,0.600,�k�k��,5.0,��
2021/06/20,14:00,0.619,0.916,0.585,1.128,0.802,0.370,0.648,0.602,�k�k��,5.4,��
2021/06/20,14:10,0.621,0.916,0.588,1.130,0.804,0.370,0.646,0.600,�k�k��,6.1,��
2021/06/20,14:20,0.620,0.919,0.588,1.130,0.804,0.370,0.647,0.602,�k�k��,4.8,��
2021/06/20,14:30,0.621,0.915,0.589,1.129,0.804,0.370,0.647,0.600,�k,4.9,��
2021/06/20,14:40,0.622,0.919,0.589,1.130,0.803,0.370,0.647,0.600,�k,5.4,��
2021/06/20,14:50,0.621,0.918,0.589,1.129,0.803,0.371,0.646,0.601,�k,3.8,��
2021/06/20,15:00,0.622,0.918,0.587,1.129,0.804,0.370,0.647,0.599,�k�k��,4.3,��
2021/06/20,15:10,0.622,0.919,0.588,1.130,0.804,0.369,0.647,0.601,�k�k��,3.7,��
2021/06/20,15:20,0.623,0.919,0.588,1.131,0.803,0.371,0.646,0.601,�k�k��,3.6,��
2021/06/20,15:30,0.623,0.919,0.588,1.130,0.803,0.372,0.646,0.601,�k�k��,3.1,��
2021/06/20,15:40,0.622,0.918,0.588,1.128,0.805,0.371,0.647,0.603,�k��,3.7,��
2021/06/20,15:50,0.621,0.919,0.589,1.129,0.805,0.371,0.649,0.601,�k��,3.3,��
2021/06/20,16:00,0.621,0.920,0.588,1.130,0.805,0.371,0.648,0.603,�k�k��,2.9,��
2021/06/20,16:10,0.621,0.918,0.588,1.131,0.805,0.370,0.647,0.600,�k��,2.6,��
2021/06/20,16:20,0.623,0.919,0.587,1.132,0.805,0.371,0.647,0.602,�k��,2.9,��
2021/06/20,16:30,0.623,0.921,0.588,1.130,0.805,0.373,0.647,0.601,�k�k��,2.0,��
2021/06/20,16:40,0.622,0.921,0.590,1.131,0.805,0.372,0.649,0.601,�k,1.9,��
2021/06/20,16:50,0.622,0.922,0.590,1.133,0.807,0.371,0.650,0.601,�k,1.2,��
2021/06/20,17:00,0.623,0.922,0.587,1.133,0.805,0.371,0.647,0.601,�k�k��,1.9,��
2021/06/20,17:10,0.621,0.922,0.589,1.134,0.808,0.370,0.647,0.601,�k�k��,2.3,��
2021/06/20,17:20,0.621,0.922,0.590,1.134,0.807,0.370,0.645,0.602,�k��,1.5,��
2021/06/20,17:30,0.621,0.923,0.591,1.134,0.808,0.371,0.647,0.601,�k��,1.9,��
2021/06/20,17:40,0.621,0.923,0.592,1.135,0.809,0.371,0.647,0.601,�k��,1.9,��
2021/06/20,17:50,0.623,0.923,0.592,1.135,0.808,0.369,0.646,0.602,���k��,1.7,��
2021/06/20,18:00,0.623,0.923,0.591,1.134,0.806,0.371,0.648,0.603,�k��,1.2,��
2021/06/20,18:10,0.623,0.923,0.591,1.136,0.807,0.369,0.648,0.602,�k��,0.6,��
2021/06/20,18:20,0.623,0.922,0.593,1.134,0.809,0.370,0.648,0.604,���k��,0.9,��
2021/06/20,18:30,0.622,0.925,0.591,1.134,0.808,0.371,0.646,0.604,���쓌,0.8,��
2021/06/20,18:40,0.622,0.926,0.592,1.136,0.808,0.371,0.649,0.604,-,CALM,��
2021/06/20,18:50,0.623,0.925,0.589,1.136,0.808,0.370,0.647,0.603,���쓌,0.6,��
2021/06/20,19:00,0.624,0.924,0.591,1.136,0.809,0.372,0.649,0.603,-,CALM,��
2021/06/20,19:10,0.624,0.922,0.589,1.134,0.807,0.370,0.648,0.603,��,0.6,��
2021/06/20,19:20,0.622,0.923,0.590,1.134,0.807,0.370,0.649,0.604,���쓌,1.1,��
2021/06/20,19:30,0.625,0.921,0.591,1.137,0.808,0.372,0.648,0.603,��,1.5,��
2021/06/20,19:40,0.623,0.924,0.591,1.136,0.809,0.371,0.648,0.604,-,CALM,��
2021/06/20,19:50,0.623,0.922,0.590,1.135,0.807,0.371,0.650,0.603,-,CALM,��
2021/06/20,20:00,0.623,0.923,0.593,1.135,0.807,0.372,0.647,0.603,�k��,1.1,��
2021/06/20,20:10,0.623,0.922,0.592,1.136,0.807,0.371,0.649,0.602,�k�k��,1.2,��
2021/06/20,20:20,0.624,0.924,0.590,1.134,0.809,0.370,0.647,0.604,�k��,0.8,��
2021/06/20,20:30,0.622,0.922,0.592,1.136,0.809,0.371,0.648,0.603,�k,1.4,��
2021/06/20,20:40,0.624,0.922,0.591,1.134,0.808,0.373,0.649,0.603,�k,1.9,��
2021/06/20,20:50,0.623,0.922,0.590,1.135,0.808,0.373,0.648,0.604,�k,2.6,��
2021/06/20,21:00,0.623,0.924,0.591,1.136,0.808,0.370,0.647,0.604,�k�k��,2.5,��
2021/06/20,21:10,0.624,0.923,0.591,1.134,0.808,0.370,0.650,0.602,�k�k��,1.9,��
2021/06/20,21:20,0.623,0.922,0.589,1.135,0.807,0.371,0.649,0.603,�k�k��,2.3,��
2021/06/20,21:30,0.623,0.922,0.588,1.135,0.807,0.370,0.649,0.604,�k�k��,2.2,��
2021/06/20,21:40,0.622,0.923,0.588,1.134,0.811,0.370,0.648,0.603,�k�k��,2.2,��
2021/06/20,21:50,0.623,0.922,0.588,1.133,0.809,0.371,0.648,0.605,�k��,1.5,��
2021/06/20,22:00,0.622,0.922,0.590,1.134,0.809,0.370,0.648,0.602,�k�k��,2.3,��
2021/06/20,22:10,0.623,0.922,0.588,1.135,0.808,0.371,0.648,0.602,�k�k��,2.3,��
2021/06/20,22:20,0.623,0.922,0.589,1.133,0.810,0.372,0.647,0.604,�k�k��,2.0,��
2021/06/20,22:30,0.622,0.923,0.589,1.139,0.809,0.371,0.648,0.604,�k,2.3,��
2021/06/20,22:40,0.624,0.922,0.590,1.134,0.808,0.370,0.648,0.603,�k,1.7,��
2021/06/20,22:50,0.622,0.924,0.590,1.135,0.808,0.372,0.648,0.603,�k,1.7,��
2021/06/20,23:00,0.622,0.921,0.590,1.135,0.808,0.372,0.645,0.603,�k,1.4,��
2021/06/20,23:10,0.622,0.923,0.590,1.134,0.808,0.371,0.648,0.604,�k�k��,0.8,��
2021/06/20,23:20,0.624,0.920,0.589,1.137,0.810,0.371,0.647,0.603,�k�k��,0.6,��
2021/06/20,23:30,0.621,0.920,0.589,1.135,0.809,0.370,0.649,0.603,�k�k��,1.2,��
2021/06/20,23:40,0.623,0.921,0.588,1.135,0.808,0.370,0.648,0.605,�k��,1.1,��
2021/06/20,23:50,0.622,0.922,0.590,1.134,0.809,0.371,0.649,0.604,�k��,1.2,��
